Wind_Speed
14 14 13 13 12 11 11 10 10 10 10 10 10 9 9 9 8 7 7 7 6 6 7 7 7 6 6 7 7 7 8 8 9 9 9 9 9 10 10 10 10 10 10
16 16 15 15 14 13 12 11 10 10 10 10 10 10 9 9 9 8 8 7 8 8 8 8 8 8 8 8 8 9 9 10 10 11 11 11 11 11 11 11 12 12 12
18 17 17 16 15 14 13 13 12 11 11 11 11 11 12 11 10 9 9 9 9 9 9 9 9 9 9 9 10 10 10 11 12 12 13 13 13 13 13 13 13 13 13
19 19 18 17 16 16 15 15 14 13 13 13 13 13 13 13 12 11 11 11 10 10 10 10 10 10 10 11 12 12 13 13 13 14 14 14 14 14 15 15 15 15 15
20 20 19 19 18 18 17 17 16 15 15 15 14 14 14 14 14 13 13 13 12 12 12 12 13 12 12 12 13 13 14 14 15 16 16 16 16 16 16 17 17 17 17
22 21 21 20 20 20 19 18 18 18 17 16 16 15 15 16 16 16 15 15 15 15 15 14 14 14 14 14 14 15 15 16 16 17 18 17 18 18 18 18 19 19 19
23 23 23 22 22 21 21 20 20 20 19 18 18 17 17 17 17 17 17 17 17 17 17 17 17 16 16 16 16 16 16 17 18 19 19 20 19 19 20 20 21 21 22
24 24 24 24 24 23 23 22 22 22 21 20 20 20 19 19 19 19 19 19 19 19 19 18 19 19 18 18 18 18 18 18 19 19 21 21 21 21 21 22 23 23 24
25 25 25 25 26 25 25 24 23 23 23 22 22 21 22 22 21 21 22 21 21 21 21 21 21 21 21 21 20 20 21 20 20 21 21 22 23 23 23 24 24 24 25
26 26 26 26 26 27 27 26 25 25 25 24 24 23 24 24 24 23 24 23 23 23 24 24 23 24 24 23 23 22 22 22 22 23 23 24 25 25 25 25 26 27 27
27 27 27 27 27 28 28 28 28 27 27 27 26 26 26 26 26 26 26 25 25 25 25 26 26 26 26 26 25 25 25 25 25 25 25 26 26 27 27 27 28 28 28
28 28 29 29 29 29 30 30 30 29 29 29 29 28 27 27 28 28 28 28 27 27 27 27 28 28 28 28 28 28 28 28 27 27 28 28 28 28 29 30 30 30 31
30 30 30 30 30 31 31 31 31 31 31 31 31 30 30 29 30 30 30 30 30 29 29 29 29 30 30 30 30 30 30 30 30 30 30 30 30 30 31 31 32 33 33
32 31 31 31 31 32 32 32 32 33 33 33 33 33 32 32 32 32 32 33 32 32 32 31 31 31 32 32 32 32 32 33 32 32 32 32 32 32 32 32 33 33 34
34 33 32 32 32 33 33 33 33 33 34 34 34 34 34 33 33 34 34 35 35 35 34 34 33 33 33 34 34 34 34 34 34 34 34 34 34 34 34 34 34 34 34
35 34 34 35 34 34 34 34 34 34 35 36 36 36 35 35 35 35 35 35 35 35 35 36 35 35 35 35 35 36 37 37 36 36 36 35 35 35 35 35 35 36 36
37 36 35 35 36 36 36 36 36 35 35 36 36 37 37 37 37 36 37 37 37 37 37 37 37 37 36 36 37 37 38 38 38 38 38 37 37 37 37 37 37 38 38
38 38 37 37 36 36 37 37 37 36 36 36 36 37 37 38 39 39 39 39 39 39 39 39 38 38 39 39 39 39 39 40 40 40 39 39 38 38 38 39 39 39 39
39 39 39 38 38 37 38 38 37 37 37 37 37 38 38 39 40 41 41 41 41 41 41 41 41 40 41 41 41 41 41 41 41 40 40 40 40 40 40 40 41 40 40
38 39 39 39 39 39 39 39 39 39 39 39 39 39 40 40 41 41 42 42 43 43 43 43 42 42 42 42 43 43 42 42 42 41 41 41 41 41 41 41 41 41 41
39 39 39 39 39 39 39 39 39 40 40 40 40 41 41 41 41 41 42 42 43 44 44 44 43 43 43 43 44 44 44 43 43 42 42 42 42 42 42 42 41 41 42
38 39 39 40 40 39 40 40 40 41 42 42 42 42 42 42 42 42 42 43 43 43 44 44 44 44 44 44 44 44 43 44 43 43 43 43 43 44 44 43 43 43 43
38 39 39 40 40 40 41 41 41 42 42 42 42 42 42 43 43 43 43 43 43 43 43 44 44 44 44 44 44 44 43 43 43 43 44 44 44 44 45 45 45 45 45
38 39 39 40 41 41 42 42 42 42 43 42 42 43 43 43 43 43 43 44 44 44 44 44 43 43 44 45 44 43 44 44 44 44 45 45 45 46 46 45 45 46 45
38 39 39 40 41 41 42 43 43 43 43 43 43 44 43 43 44 44 43 43 43 43 43 43 43 44 44 44 44 44 44 44 44 44 44 45 45 45 46 46 46 46 46
38 39 39 40 41 41 42 42 43 44 44 44 44 44 44 44 44 44 44 44 43 43 42 42 43 43 44 44 44 44 44 44 45 44 43 43 44 44 45 46 47 47 47
Wind_Direction
243 241 239 238 239 242 244 244 245 246 248 247 244 247 249 250 247 243 240 244 246 245 246 252 258 260 264 263 262 263 268 270 268 266 265 266 264 263 265 266 266 267 269
244 243 240 238 240 242 244 245 247 249 249 249 247 246 248 251 252 245 245 247 251 253 254 258 261 262 264 266 267 267 269 271 270 269 268 265 262 262 265 266 267 268 268
245 243 241 239 239 241 242 244 245 247 248 251 252 251 250 253 250 249 250 252 254 256 259 262 266 266 265 267 269 271 273 273 271 269 268 267 263 261 263 265 266 267 268
246 243 241 240 239 240 241 243 246 249 250 252 255 254 253 251 252 250 251 254 255 257 260 261 265 269 269 269 270 270 272 274 271 269 268 268 267 263 263 265 267 269 269
246 243 241 241 240 240 241 242 245 249 250 253 255 255 255 253 253 252 254 255 257 258 260 262 263 267 272 273 272 272 274 276 273 271 269 267 267 267 265 266 268 269 270
248 246 242 242 242 242 242 244 246 248 250 253 255 256 257 257 256 255 255 256 257 259 261 262 264 267 270 272 273 273 274 276 276 272 269 268 267 268 268 267 268 270 272
248 246 244 243 243 243 244 245 247 249 252 255 254 256 256 258 257 256 257 257 258 260 261 261 263 265 267 269 271 274 274 275 277 273 269 268 267 270 271 271 271 271 272
246 246 246 245 244 244 245 246 248 250 252 254 255 255 256 257 257 256 257 258 258 259 259 260 262 264 265 268 271 274 274 274 275 275 271 270 269 270 273 273 273 273 273
246 247 246 246 245 245 245 247 249 251 253 254 256 257 257 258 259 259 260 260 261 263 262 262 263 265 269 270 273 275 274 274 275 275 272 271 271 270 271 273 273 275 274
245 247 246 246 246 246 246 247 249 251 252 254 256 257 259 260 260 261 262 262 263 264 265 265 265 266 268 269 270 272 273 274 274 276 274 272 271 271 271 273 275 275 275
246 247 248 247 248 248 248 249 251 252 253 254 255 257 259 261 261 261 263 264 263 265 266 266 266 267 267 268 269 270 271 272 273 274 275 273 273 272 272 274 275 276 276
246 247 248 248 249 249 249 250 252 253 254 255 256 257 260 261 262 263 264 265 265 266 267 267 267 267 268 267 268 270 270 271 273 274 274 274 274 274 273 273 274 275 276
246 248 249 249 250 250 251 252 253 254 255 256 257 258 260 262 263 265 265 266 265 266 267 268 267 267 268 268 269 269 270 271 272 272 273 274 274 275 274 275 274 276 277
247 248 250 251 252 252 252 253 255 254 255 257 258 259 260 261 263 265 267 266 267 269 269 269 269 269 269 269 269 270 271 271 272 272 273 273 274 275 276 276 275 276 275
248 249 251 251 252 252 253 253 255 255 258 258 260 260 261 261 262 265 266 267 269 269 270 270 269 270 271 270 270 271 271 271 271 271 272 273 273 275 275 275 276 275 276
249 249 251 252 253 254 253 253 256 257 259 260 259 259 260 261 262 262 263 265 267 269 269 270 270 270 271 271 271 272 272 271 271 272 272 272 273 274 275 276 276 276 277
250 250 252 253 254 254 254 255 256 258 260 261 261 260 261 261 261 262 262 264 265 267 269 270 270 270 270 270 271 272 272 272 271 271 271 272 273 274 274 275 275 275 277
249 250 251 253 255 256 256 257 258 258 259 261 262 262 261 262 262 263 265 265 266 268 269 270 270 270 270 270 271 271 272 272 271 271 270 271 272 273 274 274 275 276 276
249 250 251 253 255 257 257 258 259 259 260 261 263 263 263 264 264 265 265 266 267 268 269 270 270 270 270 271 271 271 271 271 271 271 270 271 273 274 274 274 275 276 277
251 251 252 254 256 258 258 258 259 259 260 261 263 264 265 266 267 267 268 267 268 269 269 270 270 270 271 271 271 271 271 271 271 270 270 271 272 274 274 274 274 275 276
253 254 255 255 256 257 257 257 259 260 260 262 263 264 265 267 269 269 269 269 270 270 270 270 271 271 271 271 271 271 270 270 270 269 270 271 272 273 274 274 273 274 275
255 254 254 255 256 256 257 257 258 259 261 263 264 264 265 267 269 270 269 269 271 272 271 271 270 270 270 271 271 271 270 270 269 270 271 272 272 273 273 273 273 274 275
254 254 254 255 256 256 257 258 259 260 261 263 264 265 266 267 269 270 269 269 270 271 272 271 271 270 270 270 270 270 270 270 270 271 271 272 272 272 273 272 272 274 276
255 255 255 255 256 257 258 259 258 260 261 262 264 265 266 267 269 270 270 269 270 270 272 272 271 270 270 270 270 270 270 270 271 272 272 272 273 273 273 273 273 275 277
256 256 256 257 258 259 260 261 260 260 261 262 263 265 266 267 269 269 270 270 270 270 271 271 271 271 271 271 271 271 270 270 271 273 273 273 274 274 274 274 274 275 276
256 256 257 258 259 260 261 262 262 262 263 263 264 266 267 268 269 269 270 270 270 269 270 271 271 272 272 272 271 271 271 271 271 272 274 275 275 275 275 274 275 275 275
Height
5847 5848 5848 5849 5849 5849 5850 5850 5850 5850 5851 5851 5851 5851 5851 5851 5851 5851 5851 5851 5851 5851 5852 5852 5851 5851 5852 5852 5852 5852 5852 5852 5851 5851 5851 5851 5851 5851 5851 5850 5850 5850 5850
5844 5845 5846 5846 5847 5847 5848 5848 5848 5848 5849 5849 5849 5849 5849 5849 5850 5850 5850 5850 5850 5850 5850 5850 5850 5850 5850 5850 5850 5850 5850 5849 5849 5849 5849 5849 5848 5848 5848 5848 5848 5848 5848
5841 5842 5843 5843 5844 5844 5845 5846 5846 5846 5847 5847 5847 5847 5847 5847 5848 5848 5848 5848 5848 5848 5848 5848 5848 5848 5848 5847 5848 5847 5847 5847 5847 5847 5846 5846 5846 5846 5845 5845 5845 5845 5845
5838 5839 5839 5840 5841 5841 5842 5843 5843 5844 5844 5844 5844 5845 5845 5845 5845 5846 5846 5846 5846 5846 5846 5846 5845 5845 5845 5845 5845 5845 5844 5844 5844 5844 5843 5843 5843 5843 5842 5842 5842 5842 5842
5834 5835 5836 5837 5838 5838 5839 5840 5840 5841 5841 5841 5842 5842 5842 5842 5843 5843 5843 5843 5844 5844 5843 5843 5843 5843 5843 5842 5842 5842 5841 5841 5841 5840 5840 5840 5840 5840 5839 5839 5839 5839 5839
5830 5830 5832 5833 5834 5835 5835 5836 5837 5838 5838 5838 5838 5839 5839 5839 5840 5840 5840 5841 5841 5841 5841 5840 5840 5840 5840 5839 5839 5839 5838 5838 5837 5837 5836 5836 5836 5836 5836 5835 5835 5835 5835
5825 5826 5827 5828 5829 5830 5831 5832 5833 5834 5834 5835 5835 5835 5836 5836 5836 5837 5837 5837 5837 5837 5837 5837 5837 5837 5836 5836 5835 5835 5834 5834 5833 5833 5832 5832 5832 5832 5831 5831 5831 5831 5831
5820 5821 5822 5823 5825 5826 5827 5828 5829 5829 5830 5830 5831 5831 5832 5832 5832 5832 5833 5833 5833 5833 5833 5833 5833 5833 5833 5832 5832 5831 5831 5830 5829 5828 5828 5828 5827 5827 5827 5827 5826 5826 5826
5815 5816 5817 5818 5819 5821 5822 5823 5824 5825 5825 5826 5827 5827 5827 5827 5828 5828 5828 5829 5829 5829 5829 5829 5829 5829 5829 5828 5828 5827 5827 5826 5825 5824 5824 5823 5823 5822 5822 5822 5821 5821 5820
5810 5811 5812 5813 5814 5815 5817 5818 5819 5820 5820 5821 5822 5822 5822 5823 5823 5823 5824 5824 5824 5824 5824 5824 5824 5824 5824 5823 5823 5823 5822 5821 5820 5820 5819 5818 5818 5817 5817 5816 5816 5815 5815
5804 5805 5806 5808 5809 5810 5811 5812 5813 5814 5815 5816 5816 5817 5817 5817 5818 5818 5818 5819 5819 5819 5819 5819 5819 5818 5818 5818 5818 5817 5817 5816 5815 5815 5814 5813 5812 5812 5811 5811 5810 5809 5809
5798 5799 5800 5801 5803 5804 5805 5806 5808 5809 5809 5810 5811 5811 5811 5812 5812 5812 5813 5813 5813 5813 5813 5813 5813 5813 5812 5812 5812 5811 5811 5810 5810 5809 5808 5808 5807 5806 5806 5805 5804 5803 5802
5792 5793 5794 5795 5796 5797 5798 5800 5801 5802 5803 5804 5804 5805 5805 5806 5806 5806 5807 5807 5807 5807 5807 5807 5807 5806 5806 5805 5805 5805 5804 5804 5803 5803 5802 5801 5801 5800 5799 5798 5798 5797 5796
5785 5786 5788 5789 5790 5791 5792 5793 5794 5795 5796 5797 5798 5799 5799 5800 5800 5800 5800 5801 5800 5800 5800 5800 5800 5799 5799 5799 5798 5798 5797 5797 5796 5796 5795 5795 5794 5793 5792 5791 5790 5790 5789
5778 5779 5781 5782 5783 5784 5785 5786 5787 5788 5789 5790 5791 5792 5792 5792 5793 5793 5793 5793 5793 5793 5793 5793 5793 5792 5792 5792 5791 5791 5790 5789 5789 5789 5788 5787 5786 5786 5785 5784 5783 5782 5781
5770 5772 5773 5775 5776 5777 5778 5779 5780 5781 5782 5783 5783 5784 5785 5785 5785 5785 5786 5786 5786 5786 5785 5785 5785 5785 5785 5784 5784 5783 5782 5781 5781 5781 5780 5779 5778 5778 5777 5776 5775 5774 5773
5762 5764 5766 5767 5768 5769 5770 5772 5773 5774 5775 5775 5776 5776 5777 5777 5777 5777 5778 5778 5778 5778 5778 5777 5777 5777 5777 5776 5775 5775 5774 5773 5773 5772 5772 5771 5770 5770 5769 5768 5767 5765 5764
5754 5756 5757 5759 5760 5761 5763 5764 5765 5766 5767 5767 5767 5767 5768 5769 5769 5769 5769 5769 5769 5769 5769 5769 5769 5768 5768 5767 5767 5766 5765 5765 5764 5763 5763 5762 5761 5761 5760 5759 5758 5756 5755
5745 5747 5749 5750 5752 5753 5754 5755 5756 5757 5758 5759 5759 5759 5760 5760 5760 5760 5760 5760 5760 5760 5760 5760 5759 5759 5759 5758 5757 5757 5756 5755 5754 5754 5753 5753 5752 5751 5750 5750 5748 5747 5746
5736 5738 5740 5741 5743 5744 5745 5746 5748 5748 5749 5750 5750 5750 5751 5751 5751 5751 5751 5751 5751 5750 5750 5750 5749 5749 5749 5748 5748 5747 5746 5745 5745 5744 5744 5743 5742 5741 5741 5740 5739 5738 5736
5727 5729 5731 5732 5734 5735 5736 5737 5738 5739 5740 5741 5741 5741 5742 5742 5742 5742 5741 5741 5740 5740 5740 5739 5739 5738 5738 5738 5737 5737 5736 5735 5734 5734 5733 5733 5732 5731 5731 5729 5728 5727 5726
5718 5719 5721 5723 5724 5726 5727 5727 5729 5730 5730 5731 5731 5731 5732 5732 5732 5732 5731 5731 5730 5730 5729 5729 5728 5728 5727 5727 5726 5726 5726 5726 5724 5724 5723 5722 5721 5721 5720 5719 5718 5717 5716
5708 5710 5711 5713 5714 5716 5717 5718 5719 5719 5720 5721 5721 5722 5722 5722 5722 5721 5721 5721 5720 5720 5719 5718 5718 5717 5716 5716 5715 5715 5715 5714 5714 5714 5713 5711 5710 5709 5709 5708 5707 5706 5705
5698 5700 5701 5703 5704 5705 5706 5707 5708 5709 5710 5711 5711 5711 5711 5711 5711 5711 5711 5710 5710 5709 5709 5708 5707 5706 5706 5705 5705 5704 5704 5703 5703 5703 5702 5701 5699 5698 5697 5696 5695 5694 5693
5688 5690 5691 5692 5694 5695 5696 5696 5697 5698 5699 5700 5700 5700 5701 5701 5701 5700 5700 5700 5699 5698 5698 5697 5696 5696 5695 5695 5694 5693 5693 5692 5691 5691 5691 5690 5688 5687 5685 5684 5683 5682 5681
5678 5680 5681 5682 5683 5684 5685 5686 5686 5687 5688 5689 5689 5689 5690 5690 5690 5689 5689 5688 5688 5688 5687 5686 5686 5685 5684 5684 5683 5683 5682 5681 5681 5680 5679 5678 5677 5676 5674 5673 5672 5670 5669